USA 271

Last updated on Thu Jun 19 2025 00:02:47 GMT+0000 (Coordinated Universal Time)

1 41745U 16052B 25169.48403970 -.00000253 00000+0 00000+0 0 9992 2 41745 3.2408 81.8597 0000675 129.7999 5.5109 1.00536428 3745
UTC large
Height (km)
Speed (km/s)
/
Latitude / Longitude
Inclination (degrees)
Orbital Period (minutes)
Azimuth
Elevation
Range (km)
Doppler Factor

Next 0 passes for location: London (51.5072 / 0.1276)

Sorry there are no passes over London.